Location: Aufkirchen
(47.9603°N, 11.3653°E)
Time: 07:47:35
(UTC+01:00)

Transit 2A - Pass Details

Date: 29 November 2020
Orbit: 599 x 960 km, 66.7° (Epoch: 25 January)

Event Time Altitude Azimuth Distance (km) Brightness Sun altitude
Rises 18:06:14 0° 222° (SW) 3,625 10.5 -16.4°
Reaches altitude 10° 18:08:51 10° 225° (SW) 2,670 9.7 -16.8°
Maximum altitude 18:15:06 68° 307° (NW) 987 6.6 -17.8°
Enters shadow 18:19:45 17° 29° (NNE) 2,078 7.9 -18.6°
Drops below altitude 10° 18:21:00 10° 31° (NNE) 2,520 - -18.8°
Sets 18:23:25 0° 34° (NE) 3,409 - -19.2°
